Theta_e
339 341 342 343 343 345 345 346 347 347 346 346 346 347 348 348 348 347 348 349 348 347 347 345 342 340 341 342 342 345 346 348 349 350 351 353 355 356 357 358 358 358 358 356 355 358 357 357 357 358 359 358 356 355 356 358 357 355 357 360 353 351 353 347 343 341 339 338 340 340 343 348 353 352 350 351 351 352 353 354 355 355 355 355 356
338 339 341 342 343 344 345 345 347 344 345 346 345 346 347 348 347 347 348 348 348 348 348 347 345 343 341 340 342 343 345 347 347 349 350 353 356 356 357 358 358 358 360 357 356 356 356 356 357 357 358 358 357 357 356 360 361 358 356 356 355 351 350 350 342 340 336 335 335 336 340 344 348 347 347 348 349 350 351 353 354 353 353 354 355
336 338 339 341 342 343 344 344 345 346 346 345 346 346 346 347 348 348 348 348 348 349 348 347 347 347 344 342 342 342 347 349 349 350 353 353 355 356 357 358 358 358 360 359 355 356 356 355 355 357 358 359 358 356 358 358 358 357 356 354 352 352 354 353 347 340 337 337 337 337 331 335 342 342 343 344 345 348 350 350 352 352 352 354 354
333 336 337 339 341 342 343 343 344 345 346 346 346 346 346 347 347 348 348 348 349 349 350 349 349 348 347 346 346 346 347 351 351 351 352 354 354 356 357 357 357 357 359 359 357 356 356 354 355 356 358 359 358 356 356 357 356 355 355 355 353 350 349 351 351 343 340 337 332 331 329 332 329 333 337 341 342 345 347 348 350 351 351 352 353
333 335 337 338 339 340 342 344 345 344 345 345 346 346 346 346 347 348 348 348 349 350 350 350 350 348 348 348 350 349 350 349 347 347 349 352 353 354 355 357 357 357 358 360 359 356 356 355 354 355 357 358 358 356 356 356 356 356 356 354 352 351 348 348 350 344 342 342 335 328 328 326 328 331 331 338 337 341 343 346 349 350 350 351 352
334 334 336 337 339 340 342 343 344 344 345 346 347 347 347 347 348 348 348 349 349 349 350 350 348 347 345 344 342 343 343 344 344 344 345 347 351 354 356 357 357 357 357 359 360 359 357 356 355 354 356 358 358 357 357 357 355 355 355 355 353 351 351 348 347 353 346 348 338 340 338 333 330 331 332 331 340 340 342 344 347 348 350 350 351
334 335 336 336 338 339 341 342 344 344 345 347 348 348 348 348 348 348 348 348 349 349 350 351 348 347 346 345 344 343 342 344 347 348 347 348 351 352 355 357 358 357 357 357 359 360 357 356 356 355 355 357 359 357 356 356 356 356 357 355 355 355 349 348 346 343 345 346 345 342 345 343 334 332 330 328 329 338 337 338 341 344 347 348 348
332 334 335 336 338 339 340 342 343 345 346 347 347 348 348 348 348 348 349 350 349 350 350 351 348 347 346 346 346 344 344 344 347 348 349 350 349 350 353 356 358 358 357 357 358 359 358 356 356 356 355 356 359 357 356 357 358 358 358 357 356 356 351 349 346 341 344 343 345 344 343 340 334 334 333 333 332 331 334 335 335 339 343 346 348
333 333 334 335 336 338 341 342 344 346 347 347 347 348 349 349 349 349 348 350 349 350 349 350 350 348 347 346 345 347 346 346 349 350 349 351 348 350 352 354 356 358 358 357 357 358 360 357 356 356 356 356 360 359 358 358 358 358 358 357 355 354 353 350 347 344 341 343 340 338 337 339 337 339 337 339 336 330 329 329 334 335 337 341 344
334 334 335 336 337 338 341 343 344 345 347 348 348 349 349 349 349 348 348 349 350 349 350 349 349 350 347 346 346 346 347 347 348 347 347 348 347 349 351 352 354 356 357 357 357 357 358 359 356 356 356 357 360 360 359 358 358 359 358 358 357 355 354 354 349 346 343 343 341 340 338 337 336 336 335 333 330 334 332 331 332 332 333 338 340
333 334 335 336 337 338 339 340 342 344 346 347 347 348 348 348 348 348 348 349 350 349 349 348 349 349 347 347 346 346 347 346 345 345 346 346 346 348 349 351 353 355 356 357 357 357 358 359 357 356 356 359 360 360 359 359 359 359 359 359 358 356 354 353 354 351 345 343 339 339 339 337 336 335 334 333 333 330 330 329 330 331 332 333 339
333 334 334 335 336 336 337 338 340 343 344 345 346 347 348 348 348 347 348 349 350 349 349 348 349 349 348 347 347 347 347 346 345 344 345 345 346 346 349 351 352 354 355 356 356 357 357 357 359 357 357 357 358 359 360 360 360 360 360 359 358 357 356 354 352 352 346 343 340 337 337 337 337 337 336 337 333 333 333 332 332 333 333 333 335
333 333 334 334 334 335 335 336 338 341 342 344 345 346 347 347 347 347 347 349 349 350 349 349 348 348 348 348 347 348 347 347 346 346 346 346 346 346 347 348 351 352 353 354 355 356 357 356 357 356 356 357 357 358 360 361 361 360 359 359 359 357 356 354 352 351 348 344 343 339 337 335 336 337 336 336 336 336 335 333 331 330 333 332 335
333 334 334 334 335 335 336 336 337 339 342 343 344 346 346 347 347 346 347 348 350 349 349 348 348 349 349 349 348 348 347 347 347 347 346 347 347 346 346 348 349 351 353 353 355 356 357 357 357 357 357 358 358 358 359 360 361 360 360 359 358 359 358 355 354 352 349 347 345 341 336 335 336 337 336 337 336 334 333 331 333 334 331 331 332
333 334 334 334 335 336 336 336 337 338 340 342 344 345 346 346 346 346 346 347 349 349 349 348 348 349 350 350 349 349 348 348 348 348 348 347 347 347 347 348 349 351 352 354 356 356 357 357 357 357 357 358 359 358 359 360 360 361 360 359 360 359 358 356 354 351 348 346 344 342 341 338 337 339 338 338 338 337 335 334 334 330 330 330 333
333 333 334 335 336 336 336 337 337 337 339 341 343 344 344 345 346 346 346 347 348 349 349 349 349 349 350 349 349 350 350 349 348 349 349 348 348 347 347 347 349 351 353 354 355 356 356 356 357 357 358 358 358 359 359 359 359 359 359 359 359 359 357 355 355 351 349 348 345 345 341 339 339 338 340 340 339 339 337 336 336 335 331 328 329
332 333 334 335 336 336 337 337 337 338 338 340 342 344 344 345 345 345 346 347 347 349 348 349 349 349 349 349 349 349 349 348 347 348 348 348 348 348 347 347 348 350 351 354 354 355 356 356 356 356 357 358 358 359 359 359 359 359 358 358 358 359 358 356 355 352 351 347 345 344 343 343 342 340 341 341 341 341 340 338 338 336 335 332 331
332 333 335 335 336 336 337 337 338 338 338 339 342 344 345 345 345 345 345 345 347 348 348 348 349 349 349 349 350 350 349 349 349 348 349 348 347 348 348 347 347 348 350 353 354 354 355 358 356 356 357 357 358 359 359 359 359 358 358 358 359 359 357 357 356 354 352 350 347 345 344 344 345 341 340 340 342 342 341 339 339 338 338 335 333
330 332 333 334 335 336 337 337 338 338 340 340 342 343 344 345 346 345 345 346 346 348 348 349 349 349 349 349 349 349 350 350 350 350 349 348 347 347 347 348 348 349 351 352 352 353 353 355 356 355 356 356 357 358 359 359 359 358 358 357 358 358 357 356 356 354 353 351 348 345 345 344 345 343 342 339 342 341 341 340 340 339 337 337 335
329 331 333 334 335 336 337 337 337 338 338 340 341 342 343 344 345 345 346 347 347 347 349 348 349 349 349 350 350 350 350 350 350 349 348 348 348 348 347 348 348 350 350 351 352 352 353 353 354 355 355 355 356 357 358 359 359 358 358 357 357 357 356 356 356 355 353 351 350 348 347 345 345 344 343 342 342 342 341 340 340 339 338 338 338
328 330 332 334 335 336 337 338 338 339 340 340 340 341 342 344 344 345 345 345 346 347 348 348 349 349 350 349 349 350 349 350 350 349 348 349 349 350 348 348 350 349 350 350 351 352 352 353 353 354 354 354 355 356 357 358 358 358 358 358 358 356 356 356 356 355 353 352 351 349 349 348 346 344 344 343 342 342 342 341 340 339 338 338 336
328 330 332 334 335 336 337 338 338 338 338 339 340 341 342 342 343 344 345 345 345 346 348 348 349 349 349 349 349 349 350 350 349 349 348 348 348 350 350 350 348 350 351 351 351 352 352 352 353 353 354 354 355 355 356 357 357 357 357 357 357 356 355 355 355 354 355 353 352 351 350 350 348 345 344 342 342 342 342 341 341 339 339 338 338
328 329 331 333 335 336 337 337 337 337 338 339 340 340 341 342 343 344 344 345 346 347 348 349 349 349 349 349 349 349 349 349 348 348 348 348 348 349 351 350 349 349 352 351 351 352 352 353 352 353 353 354 354 355 356 356 356 356 356 356 356 356 355 354 354 354 354 354 352 351 350 351 349 346 345 344 343 342 342 342 342 342 341 340 338
328 330 331 333 334 336 336 336 337 337 338 339 340 340 341 342 342 343 344 345 346 347 348 348 349 349 349 349 349 349 349 349 348 348 348 348 348 348 350 350 350 350 350 352 353 352 353 352 352 352 352 353 354 354 355 356 356 356 356 356 356 356 356 355 355 354 354 354 352 351 351 351 350 348 347 346 344 343 343 343 342 343 343 342 341
326 328 330 332 333 334 335 336 337 337 338 339 340 340 341 341 342 343 344 345 346 347 347 348 348 348 348 348 348 348 348 348 348 348 348 348 349 349 349 350 351 351 351 351 353 353 353 352 351 352 352 352 353 354 354 355 356 357 356 356 356 356 356 356 356 355 355 354 353 352 352 352 351 348 348 347 346 344 343 342 341 342 342 343 342
325 327 329 330 332 334 336 336 337 337 337 339 340 341 341 342 342 343 344 344 345 346 347 347 347 347 348 348 348 348 348 348 348 348 348 349 349 349 349 350 350 351 351 352 352 353 353 352 353 353 353 353 353 354 354 354 355 356 356 356 356 356 356 356 356 356 356 355 354 354 353 353 351 348 348 349 348 346 345 343 342 342 342 343 342
325 327 329 331 333 334 335 336 336 337 337 338 339 340 341 342 343 343 344 345 345 346 346 346 347 347 347 347 347 348 348 348 349 349 349 349 349 349 349 349 351 350 351 351 352 352 353 353 353 354 353 354 353 353 354 354 355 355 356 356 356 356 356 356 356 356 356 356 355 354 354 353 352 351 350 349 349 348 346 345 344 343 343 342 341
325 326 328 330 332 334 335 336 336 336 337 338 340 341 342 342 342 344 344 345 345 346 346 346 346 346 347 347 348 348 348 349 349 349 349 349 349 349 350 350 351 350 350 351 351 351 352 353 353 354 354 355 354 354 354 354 355 355 355 355 356 355 355 356 356 356 356 356 356 355 354 354 353 353 352 351 351 349 349 347 347 345 344 342 340
324 326 329 330 331 333 334 335 336 337 337 338 339 340 342 343 344 344 345 345 346 346 345 346 346 346 346 348 348 349 349 349 349 349 349 349 349 349 350 350 350 350 351 351 352 352 352 352 353 354 354 354 354 354 354 354 354 354 355 355 355 355 355 355 355 355 356 356 356 356 355 355 355 351 344 344 345 344 350 347 348 347 345 343 341
324 326 329 331 332 334 335 336 336 336 337 337 338 340 341 342 343 344 345 346 347 346 345 345 345 346 347 348 349 349 349 349 349 349 349 349 349 349 349 349 349 350 351 351 352 352 352 352 352 353 353 353 354 354 346 335 339 353 354 355 355 355 355 355 355 355 355 355 356 356 356 352 344 341 339 336 334 334 336 345 350 349 347 345 343
325 327 329 331 333 334 335 336 336 337 337 337 338 340 341 342 343 344 345 347 347 346 346 346 346 347 348 349 349 349 349 348 349 349 349 349 349 349 350 349 349 350 350 351 351 350 351 352 352 352 352 353 353 352 336 331 331 334 350 355 354 354 355 356 355 355 354 355 356 356 357 356 349 343 343 334 333 332 332 332 334 337 341 347 345
326 328 330 331 333 334 334 335 336 337 337 338 339 339 340 341 343 344 346 347 347 347 346 347 347 348 348 349 349 349 349 349 349 349 349 350 350 350 349 349 349 349 350 350 349 349 350 350 351 352 352 352 353 339 332 330 330 329 334 353 355 355 354 355 355 355 355 355 355 355 356 357 357 357 355 352 341 332 329 329 329 330 332 333 335
327 329 331 331 333 334 335 336 337 337 337 338 339 339 340 341 343 345 347 347 347 347 347 348 348 349 349 349 350 349 350 350 350 350 350 350 350 349 349 349 349 350 350 349 349 349 349 350 350 350 350 352 353 337 331 328 328 328 327 338 354 354 354 354 355 355 355 355 355 355 355 357 357 349 352 356 356 353 333 327 327 328 328 328 328
327 330 331 332 334 335 336 337 338 338 339 340 341 340 341 342 344 346 347 348 348 348 348 348 349 349 350 350 350 350 350 350 351 351 351 350 350 349 349 350 350 350 350 349 349 349 349 349 349 349 349 350 351 338 329 326 326 325 326 331 350 353 354 354 355 355 355 356 356 355 355 355 357 357 357 356 356 356 356 350 341 338 339 338 328
327 329 331 333 334 335 336 337 338 339 340 340 340 341 342 342 343 344 346 348 349 349 349 350 350 350 351 351 351 351 350 351 351 351 351 351 350 350 350 350 350 350 349 349 349 349 349 349 349 349 349 349 349 334 327 323 322 322 324 327 347 352 354 354 355 356 356 356 356 356 356 356 356 357 357 355 356 356 355 355 354 351 347 347 347
326 329 330 332 334 335 336 337 340 340 340 340 340 341 341 341 343 343 345 347 349 349 349 350 350 351 351 352 352 351 351 352 352 352 351 351 351 351 350 351 351 351 351 351 351 350 349 349 350 350 349 348 350 331 325 323 321 320 322 336 345 349 351 353 354 355 356 357 357 357 356 356 357 357 347 335 341 355 356 354 352 353 354 353 351
326 328 329 333 335 335 336 340 338 339 339 340 341 342 342 342 342 342 344 345 348 348 349 350 351 351 352 353 353 352 352 352 352 352 351 351 351 351 352 352 351 351 350 350 350 350 351 350 350 350 349 349 350 336 323 320 319 318 321 340 345 347 349 351 352 354 355 356 356 357 357 356 357 356 344 332 330 334 353 353 353 353 353 353 353
328 329 329 332 333 336 339 337 337 338 339 340 341 342 342 342 342 342 343 344 346 347 349 351 351 352 353 354 354 353 353 353 353 352 352 352 353 353 352 353 351 350 350 350 351 351 351 351 350 350 350 349 350 340 322 318 317 317 325 343 345 346 347 349 350 352 354 355 356 349 355 356 356 356 338 329 329 334 348 352 352 352 351 351 352
331 331 331 333 336 337 338 338 337 336 337 341 342 343 342 342 343 342 343 343 345 347 349 350 351 353 354 354 355 354 354 353 353 353 353 353 353 353 354 354 353 353 352 352 352 351 351 351 351 350 342 347 350 342 322 318 316 315 325 344 346 346 347 348 349 350 352 353 355 351 346 345 349 348 333 328 326 333 349 352 353 352 350 350 351
345 338 336 338 342 341 337 336 336 337 339 342 343 343 344 343 343 343 343 343 345 347 349 351 352 353 354 355 355 355 355 354 354 354 355 354 355 355 355 354 354 353 353 353 352 352 350 350 351 351 350 349 350 351 342 317 315 314 317 343 347 346 346 347 349 349 350 352 353 354 349 329 326 327 326 324 323 321 345 353 354 352 350 349 354
348 348 351 347 346 343 341 340 340 340 340 342 343 343 344 345 345 344 344 344 347 349 351 352 353 354 355 355 356 356 355 356 356 355 355 355 356 355 355 354 353 353 353 353 352 352 351 351 351 351 351 351 351 350 347 318 314 313 314 323 347 347 348 349 349 349 350 351 352 353 355 338 325 322 320 319 318 317 321 346 353 352 352 349 341
347 351 350 348 348 349 350 350 350 346 344 344 345 346 347 347 346 346 351 356 354 349 351 352 353 354 355 356 356 357 358 357 358 358 356 356 357 357 356 355 355 354 353 352 352 351 351 351 351 351 351 351 351 341 352 323 315 313 313 313 340 348 348 350 350 350 351 351 352 353 354 342 326 320 317 314 313 315 316 331 340 327 328 325 341
340 341 345 345 344 345 346 348 351 351 351 351 351 350 351 351 351 352 355 356 357 355 349 351 352 353 355 356 357 358 357 358 358 358 357 356 357 356 356 356 355 354 353 352 352 352 351 350 351 351 352 352 353 350 332 341 317 312 311 311 318 335 331 348 350 349 350 351 354 354 354 341 326 317 313 312 312 312 314 326 317 316 317 320 332
340 341 341 343 341 341 342 344 346 349 351 352 351 350 351 351 350 353 355 359 357 356 350 348 350 352 353 355 357 358 359 359 359 359 358 357 357 357 356 356 355 353 352 352 352 352 351 350 349 349 350 351 352 353 336 328 331 313 312 310 312 316 324 343 350 351 352 354 355 356 349 324 315 311 310 311 310 311 326 316 312 312 315 322 332
338 339 341 341 340 339 340 341 343 344 346 348 350 350 350 349 350 354 354 356 355 350 344 346 347 349 351 353 355 357 358 359 359 359 357 357 357 356 355 355 355 353 352 351 351 351 350 350 349 349 349 350 351 351 352 335 324 318 312 311 311 312 315 318 341 350 353 351 317 307 307 307 306 305 307 309 310 309 310 311 310 311 322 327 330
335 338 340 340 340 340 339 339 340 343 344 346 346 348 347 347 350 354 353 356 357 356 354 348 344 345 347 351 352 353 355 357 358 359 358 358 357 356 354 354 354 353 352 351 351 350 349 349 349 349 349 350 350 351 351 350 333 328 320 313 313 313 315 316 324 340 320 314 315 313 311 313 317 324 338 343 343 339 322 321 319 320 329 331 332
332 335 339 338 339 338 338 338 338 340 342 343 344 345 346 347 348 349 354 356 357 356 356 354 351 346 345 348 351 351 352 354 356 357 358 358 358 356 355 353 353 353 352 351 351 350 349 349 348 349 350 350 350 351 352 352 348 343 340 334 322 321 316 317 324 328 325 330 330 333 334 326 327 324 327 325 330 331 335 335 335 336 337 337 335
331 334 338 337 337 337 337 337 337 338 339 340 341 341 342 344 345 348 351 354 355 355 353 352 351 351 347 347 349 355 354 352 354 355 355 356 356 356 355 354 353 353 352 351 351 350 349 349 349 350 350 350 350 351 352 352 348 347 345 343 338 334 333 331 330 332 334 336 339 332 331 339 338 337 335 333 331 331 330 329 329 329 329 330 329
330 333 336 335 336 336 335 337 336 336 337 337 338 339 341 342 343 345 348 351 353 354 352 350 351 351 350 351 349 352 355 353 353 344 322 318 325 351 355 356 356 357 356 355 353 353 352 353 353 352 351 350 351 351 351 335 349 331 341 344 341 338 338 337 333 324 336 337 339 339 340 338 337 332 330 330 328 327 326 325 325 326 326 325 326
329 332 333 335 336 336 335 335 335 335 336 336 336 337 339 341 342 343 346 348 350 349 349 349 349 350 350 353 351 352 354 352 346 336 327 318 307 298 303 327 345 319 316 318 331 352 355 356 354 355 350 354 353 355 333 320 319 315 315 320 322 321 321 330 319 318 332 336 336 334 333 332 331 331 328 326 325 324 323 323 323 321 323 323 323
328 329 330 333 334 337 336 336 334 335 335 335 335 336 337 338 340 342 344 344 346 347 347 347 348 349 348 353 353 352 349 345 342 337 335 330 327 320 299 296 304 309 303 302 309 312 318 333 351 349 319 306 308 311 313 312 311 310 310 310 308 306 307 306 309 330 336 334 331 330 328 328 327 327 325 323 322 322 322 322 322 322 323 323 322
Wind_Speed
15 16 16 16 16 14 13 13 13 14 14 14 14 14 14 14 13 13 11 11 10 9 9 9 9 7 6 8 9 8 7 6 6 6 6 6 6 6 6 6 6 6 6 6 6 5 5 4 4 4 4 4 4 5 5 4 3 3 1 0 2 2 1 1 2 3 5 4 4 4 4 2 2 2 1 1 1 1 1 2 2 3 3 4 4
11 13 15 15 14 15 14 13 14 16 15 15 16 16 15 15 15 13 11 11 12 12 11 10 9 10 9 10 8 8 7 8 8 7 7 6 6 6 6 6 6 7 6 6 6 6 5 4 4 5 4 4 4 3 3 3 3 2 1 1 1 2 2 1 3 3 2 3 3 1 3 2 1 1 1 1 0 1 1 2 1 2 2 2 2
15 17 17 16 18 17 15 14 14 16 16 17 16 15 15 14 14 12 11 12 12 12 11 11 10 9 9 7 8 6 6 6 5 5 5 6 6 6 6 7 7 6 6 6 6 6 6 5 5 4 5 4 4 4 3 4 3 4 3 3 3 1 1 1 4 1 3 2 2 4 2 2 3 2 1 2 2 2 1 3 2 3 3 2 2
18 19 19 18 18 17 16 15 15 15 15 15 15 16 14 13 13 13 13 13 12 12 12 11 10 8 7 4 4 4 3 3 4 4 5 5 7 7 6 7 7 7 6 6 5 6 6 6 5 5 5 4 5 5 4 4 3 3 3 3 2 2 0 1 1 2 3 5 2 1 1 2 2 4 4 3 1 2 3 3 2 3 3 3 1
17 17 17 18 19 20 19 16 15 16 16 16 16 16 13 16 15 15 13 13 12 13 13 10 8 7 5 3 3 3 3 4 4 4 6 6 5 6 8 7 7 6 6 6 6 7 6 5 5 5 5 4 4 5 5 5 5 4 4 4 4 4 3 1 0 2 4 0 7 3 3 1 3 3 2 4 1 2 3 3 3 3 3 3 3
18 20 21 21 20 18 17 17 18 16 17 16 16 16 15 14 15 14 12 12 12 13 13 11 10 10 8 7 7 7 7 6 8 9 7 8 9 6 5 7 6 6 6 6 6 6 6 6 6 5 5 5 5 5 4 3 4 4 5 5 5 3 3 2 2 2 2 3 3 2 4 3 4 2 1 4 2 2 2 2 3 4 3 3 3
15 15 16 18 18 18 18 19 19 18 17 15 15 15 16 15 15 15 13 12 12 12 13 11 10 9 11 11 10 10 11 9 9 9 9 8 5 6 6 6 6 7 6 6 6 6 6 6 6 6 5 5 4 4 4 5 5 5 3 4 5 3 3 4 5 3 2 2 3 1 2 0 4 5 4 2 3 3 2 3 4 4 4 5 5
17 18 19 19 19 21 22 21 19 19 16 15 15 15 16 16 15 15 13 12 11 11 13 12 12 11 11 11 10 10 10 10 9 9 7 5 6 6 6 6 6 6 6 6 6 6 6 6 6 5 5 5 4 5 6 5 4 3 4 4 3 3 5 5 5 3 5 3 2 3 0 2 1 2 3 6 3 2 3 1 2 3 3 5 6
19 17 19 21 21 21 19 18 18 16 15 16 15 15 15 15 15 15 15 13 12 13 13 14 12 12 12 11 10 9 8 7 4 4 5 6 7 5 6 6 6 7 7 7 7 7 6 6 6 6 6 5 5 5 5 5 6 6 5 4 5 4 5 4 3 4 4 4 3 1 1 1 1 1 2 2 2 3 4 3 4 2 1 5 5
16 18 17 18 17 17 17 16 15 16 15 15 14 13 14 14 15 16 15 13 13 14 14 15 15 12 12 11 12 10 8 6 5 6 6 6 7 7 6 6 6 6 6 7 7 7 7 6 6 7 7 6 5 6 5 5 5 5 6 6 5 5 4 4 5 4 4 3 4 4 4 2 1 0 0 2 0 1 4 4 4 5 5 4 2
16 17 17 17 16 15 15 17 17 16 14 15 15 15 15 15 16 17 17 14 14 15 15 16 15 13 12 12 13 12 10 7 7 7 6 6 7 7 7 7 7 7 5 6 7 7 7 6 6 7 6 5 5 6 6 6 5 6 5 5 5 6 5 5 4 4 4 4 4 5 6 6 6 5 5 4 4 3 2 4 3 4 5 6 3
18 16 16 14 13 15 16 18 18 18 16 16 15 15 15 15 15 17 16 15 14 15 15 16 14 14 13 13 13 12 11 9 10 9 9 10 9 9 7 6 6 6 6 6 7 7 7 8 7 6 6 6 7 6 5 5 5 5 4 5 5 5 4 4 4 5 5 4 4 4 5 5 4 5 4 5 6 5 5 5 5 0 2 5 4
16 17 15 14 16 18 19 19 17 18 18 18 17 16 15 15 17 17 17 16 15 15 16 15 14 14 14 14 13 11 11 11 10 9 9 9 8 8 7 8 6 6 6 7 7 8 7 8 7 7 6 6 6 6 5 6 5 5 5 6 5 6 5 6 5 6 6 6 6 4 4 3 5 4 2 3 4 1 3 4 2 1 4 3 2
17 16 16 17 18 18 19 18 18 17 18 18 18 17 15 15 17 18 18 17 15 15 16 15 16 15 14 13 12 11 11 11 10 10 10 9 8 9 9 9 8 9 7 9 7 7 7 8 8 7 7 7 7 6 6 6 6 5 6 6 6 5 5 6 6 5 5 6 4 4 4 5 5 3 4 3 4 4 3 5 4 0 1 4 2
16 16 17 18 19 20 18 18 17 17 19 18 17 17 16 16 17 19 18 17 16 16 15 16 15 15 13 13 12 11 11 10 10 10 9 9 8 9 8 8 8 8 9 8 7 9 8 7 8 7 7 7 6 6 5 6 6 5 5 5 5 4 5 5 5 5 6 7 6 6 5 4 5 4 4 5 4 5 5 5 5 5 3 2 4
15 15 17 18 18 17 16 15 16 16 18 18 19 17 17 17 18 19 19 18 17 16 15 16 15 13 14 13 13 13 11 10 8 8 8 9 9 9 9 9 8 7 7 6 8 8 9 9 7 8 7 6 6 7 6 6 6 6 5 5 6 3 5 6 5 5 6 7 7 5 4 5 5 4 5 5 5 5 5 4 5 5 5 6 2
15 16 16 18 16 16 17 17 16 17 18 20 20 19 19 17 17 18 18 17 18 17 16 15 14 14 14 14 13 12 12 12 12 12 11 9 8 8 8 8 7 6 7 6 7 8 8 8 8 7 7 7 7 7 6 6 6 6 5 6 6 5 5 6 5 6 6 5 5 6 6 6 5 4 4 4 4 3 4 4 5 7 6 4 4
20 20 19 19 18 20 19 18 19 20 21 20 20 18 17 17 18 19 18 18 17 17 16 15 15 15 14 14 14 13 13 13 12 12 10 8 8 8 7 6 9 8 7 6 8 8 8 9 9 8 7 7 8 7 7 6 6 6 6 6 6 5 6 5 5 5 6 5 5 5 5 6 4 4 5 5 5 5 5 5 5 5 5 6 5
17 18 17 15 15 16 16 18 20 19 18 19 18 18 16 16 17 19 20 20 19 16 15 13 14 12 12 13 14 13 12 12 11 10 9 10 10 10 10 9 7 7 7 8 8 8 8 9 9 8 7 8 7 7 7 6 6 6 6 6 5 6 5 6 5 5 5 5 6 7 6 6 4 5 4 4 4 5 5 5 4 4 5 6 6
17 18 18 17 18 20 21 21 20 20 19 19 19 17 19 18 17 17 17 16 16 17 16 15 14 12 12 11 12 13 13 12 11 11 10 12 12 11 10 9 9 7 8 9 9 9 9 9 7 7 8 7 7 7 7 7 6 6 5 6 6 6 6 6 5 5 4 5 6 7 7 6 5 4 4 4 5 5 5 5 5 5 5 5 5
17 18 18 20 20 20 20 20 20 18 14 14 16 19 19 17 18 18 19 18 18 17 16 14 13 13 13 14 14 13 13 12 11 12 12 12 10 10 10 9 7 8 8 9 9 10 10 10 10 9 9 9 9 8 7 6 6 7 6 6 6 7 7 6 5 6 5 6 7 7 7 7 5 5 5 4 4 5 4 5 5 5 5 5 6
18 18 18 19 20 20 19 18 15 14 15 18 18 17 18 20 19 18 18 17 18 17 15 15 13 13 15 14 14 13 12 11 12 12 12 11 10 10 9 8 10 9 9 9 10 9 9 10 9 10 10 10 9 9 7 6 7 7 7 5 6 6 7 7 5 7 7 5 6 8 7 6 6 6 5 5 5 5 5 5 5 6 6 6 6
18 18 18 18 18 18 17 18 19 21 21 21 19 19 19 20 18 17 18 19 18 18 16 15 14 14 15 14 13 13 12 14 14 12 11 11 9 10 8 10 10 9 9 9 10 10 10 10 10 9 10 9 10 9 8 8 8 9 8 7 6 7 7 7 7 8 7 5 6 7 7 6 4 6 6 6 5 6 5 6 7 5 6 6 5
16 16 16 17 17 15 13 15 16 16 16 17 18 17 17 17 18 17 19 19 18 16 15 15 14 15 15 14 13 13 13 13 12 12 12 12 10 9 9 10 10 7 9 8 9 10 9 10 10 10 10 10 10 9 8 8 9 9 8 9 7 8 7 8 8 8 7 7 8 7 8 7 5 6 6 5 6 6 7 7 7 6 7 7 6
16 16 16 15 13 13 14 16 17 17 17 17 17 17 18 18 17 18 18 18 17 15 15 15 16 15 15 14 14 14 14 15 14 11 12 11 10 9 9 11 10 9 10 9 9 9 10 10 10 11 11 11 11 10 10 8 8 8 9 8 8 8 8 8 8 8 7 8 8 9 9 6 5 6 6 7 6 8 7 7 7 6 6 6 5
14 15 14 14 15 16 16 16 16 17 17 16 17 17 17 17 18 17 17 16 16 15 16 16 15 15 15 16 15 14 15 15 14 12 13 12 11 11 11 9 10 11 11 9 11 9 10 11 11 11 11 11 10 10 10 10 8 8 8 8 8 8 8 8 8 8 8 7 8 9 8 6 6 8 8 7 7 9 7 7 8 7 5 5 6
16 16 14 13 12 16 18 18 18 19 18 17 17 17 17 16 17 17 16 16 16 15 15 16 16 15 15 16 15 15 14 14 14 14 12 12 12 11 11 11 11 11 10 10 10 11 10 11 12 11 11 11 10 10 10 10 10 10 10 10 9 9 8 7 8 8 8 8 8 8 8 7 8 8 9 9 8 7 6 8 8 7 5 6 6
14 13 14 15 17 17 18 18 18 18 17 15 16 17 17 17 17 16 15 15 13 15 15 15 15 15 15 16 15 15 14 14 13 13 13 13 13 13 12 12 11 11 10 11 10 11 10 10 11 11 11 9 10 9 10 10 10 11 10 10 9 9 8 8 8 8 8 8 9 9 9 8 9 9 9 9 8 8 7 7 8 6 6 7 7
15 15 16 17 17 16 17 18 18 17 17 17 15 14 13 13 13 14 15 16 15 15 16 16 15 15 15 15 14 13 12 12 13 12 13 13 13 12 12 11 11 11 10 10 11 11 11 11 11 10 10 10 10 11 10 10 11 12 10 10 9 9 9 8 8 8 8 9 9 9 9 9 10 13 14 13 11 11 8 9 10 7 6 6 6
17 17 18 17 18 18 17 18 16 17 18 16 15 15 16 17 17 17 16 16 15 15 15 15 16 16 14 14 13 12 12 12 12 13 13 13 13 12 12 12 12 12 11 10 10 11 11 12 12 11 11 9 10 9 12 17 15 11 10 9 9 10 10 9 8 7 9 9 10 9 9 14 14 14 15 16 16 16 15 12 12 8 9 6 6
16 17 17 17 17 16 15 16 17 18 18 17 17 17 17 17 16 16 16 16 16 15 16 16 16 15 14 13 12 13 12 13 13 13 12 13 13 11 11 12 12 12 12 11 11 12 12 12 12 11 10 10 10 10 16 16 17 17 12 10 10 10 8 8 8 9 9 9 8 9 9 11 12 12 14 18 17 17 17 18 19 17 12 9 7
15 16 16 16 16 15 16 18 18 19 18 17 15 15 15 16 16 17 16 15 15 15 16 15 15 13 13 14 13 13 13 13 13 14 13 12 12 12 12 12 12 12 12 11 12 13 13 12 11 11 11 10 11 14 16 16 17 18 15 12 9 8 8 8 8 9 9 8 9 8 8 7 8 11 10 10 13 16 17 17 19 19 18 16 13
16 16 16 17 17 18 19 19 18 18 18 18 18 17 17 17 17 16 14 15 16 16 15 14 14 14 14 13 13 13 14 13 14 14 13 12 13 12 13 12 13 13 12 13 13 13 13 13 13 13 13 13 11 14 17 18 17 18 18 14 10 10 9 8 9 10 10 11 10 9 8 8 8 14 11 10 9 10 13 18 18 19 18 17 15
15 17 18 17 15 15 17 19 20 20 21 18 18 19 17 14 13 12 14 14 14 14 14 14 13 13 13 13 13 14 14 14 14 13 13 13 13 14 14 13 12 12 12 13 14 14 13 13 13 13 13 12 13 15 17 18 18 18 18 15 10 11 10 11 12 11 10 10 12 11 9 9 8 8 9 9 9 9 8 9 10 9 10 13 13
11 13 14 14 16 16 15 14 15 16 13 12 12 9 9 11 13 14 13 14 14 14 13 13 14 13 13 14 14 14 15 14 14 14 13 14 14 13 14 13 12 12 13 14 14 13 13 13 14 13 12 12 11 17 16 18 18 18 18 15 9 9 10 11 12 12 13 13 12 11 11 11 11 10 10 10 9 9 8 8 10 12 10 9 7
10 12 12 13 14 15 17 17 13 12 12 13 13 12 14 13 13 13 13 13 13 14 14 13 14 14 15 14 14 14 14 14 14 14 14 14 14 14 14 13 12 12 12 11 11 12 13 14 14 13 12 14 13 17 17 17 18 17 17 10 9 11 10 11 12 13 12 11 11 12 12 12 11 11 13 16 14 11 8 11 12 13 12 7 6
4 5 5 5 7 9 9 9 11 14 13 12 12 12 12 12 12 12 12 13 13 14 14 14 14 14 14 14 15 15 15 15 14 14 14 15 14 14 13 11 12 12 11 11 13 11 11 12 13 13 15 15 14 15 17 18 17 18 13 9 9 8 10 11 13 12 12 12 12 12 12 11 11 12 14 15 16 14 11 13 12 13 12 7 5
8 8 9 8 8 9 9 11 11 11 11 10 12 13 12 12 12 12 13 13 14 14 13 13 14 14 15 15 15 16 15 15 14 15 15 15 15 13 13 12 13 12 12 12 11 11 12 12 14 14 14 12 12 14 17 17 18 18 16 11 9 8 11 12 12 12 11 11 12 16 14 12 13 13 15 16 16 14 10 10 11 12 12 8 6
10 13 11 11 11 12 12 12 11 11 9 11 12 13 13 12 12 13 14 14 14 14 14 14 15 15 15 15 15 15 15 15 14 15 15 15 15 14 14 12 11 11 12 10 11 10 10 11 12 12 15 16 13 13 16 17 18 19 17 11 10 10 10 11 9 11 11 10 11 11 16 16 14 15 16 15 17 14 10 10 10 10 10 10 6
8 7 11 11 11 12 12 13 14 13 12 13 13 12 12 11 12 12 13 14 14 14 14 14 13 14 13 13 13 14 14 14 15 15 14 14 13 10 9 10 11 10 11 10 11 10 11 10 10 12 11 12 13 13 12 18 18 19 21 13 10 10 10 12 11 11 9 9 9 9 11 16 18 19 18 17 17 17 12 9 7 8 8 12 5
11 9 7 10 8 11 11 11 11 12 13 14 14 13 13 11 11 11 13 11 9 9 10 12 11 11 11 12 12 13 15 14 14 14 14 13 11 12 11 12 11 10 11 11 11 10 11 12 10 11 11 11 11 13 12 17 19 20 21 18 11 12 11 11 10 10 8 8 8 7 9 13 18 19 19 19 17 14 12 9 8 9 11 3 12
13 13 11 10 11 11 11 10 7 9 9 9 10 10 9 9 9 8 7 5 6 8 8 9 10 11 12 12 12 12 13 12 12 11 10 11 11 12 11 12 10 10 12 12 11 11 10 11 10 10 11 12 12 15 11 14 19 20 21 23 13 13 12 11 11 10 8 7 9 9 9 12 15 14 14 14 14 14 13 8 10 13 11 5 6
14 14 12 10 12 12 11 10 8 10 9 11 13 12 10 9 9 6 5 5 6 6 7 9 10 11 11 11 11 13 12 11 11 12 13 13 11 11 11 11 11 11 11 12 12 11 10 10 9 9 9 10 10 10 16 13 17 21 22 22 22 16 15 12 11 11 10 10 9 9 8 8 8 10 10 11 12 13 8 8 12 10 11 6 11
13 12 10 10 13 11 11 10 10 10 9 11 14 13 11 11 8 4 4 5 5 6 8 9 9 11 11 11 12 12 12 12 13 12 12 13 11 11 11 10 11 11 10 11 10 10 9 10 10 10 9 9 9 9 11 17 14 20 20 22 22 22 17 12 11 10 9 8 7 5 3 5 5 6 7 7 8 7 6 8 9 10 6 11 9
11 11 10 10 11 12 10 11 11 11 10 9 11 14 11 11 5 4 5 6 6 6 6 7 8 9 10 11 11 11 12 12 12 12 12 12 12 11 10 10 10 10 10 10 10 10 10 10 10 10 10 9 8 8 8 12 17 17 20 20 21 21 21 18 11 9 8 1 6 9 10 9 9 9 10 9 6 8 9 7 7 6 11 7 8
11 11 11 9 9 10 11 10 11 11 11 9 9 11 13 7 5 5 5 7 7 7 6 6 6 6 7 7 8 9 9 10 11 10 11 11 12 11 11 10 10 11 10 10 10 9 10 10 9 9 9 9 7 7 7 7 9 12 13 17 20 20 21 20 16 7 6 8 7 8 10 10 9 7 4 3 2 3 4 4 6 8 6 6 8
14 11 8 9 9 9 9 9 11 9 9 8 10 9 8 6 5 4 5 6 7 7 7 6 5 5 6 7 8 8 8 8 9 9 9 9 9 9 10 10 10 10 10 10 10 9 8 8 9 9 9 8 8 7 6 6 6 7 7 9 10 10 11 6 6 8 9 5 4 4 4 4 4 4 6 6 7 5 6 5 5 4 4 5 6
12 11 10 8 9 8 7 8 8 7 7 8 8 7 6 6 5 5 5 6 7 6 5 4 4 3 4 5 7 9 9 8 9 9 9 8 8 8 9 11 11 11 11 11 10 10 10 10 9 9 8 7 7 6 6 6 7 8 8 7 6 6 6 6 7 6 5 4 4 4 4 3 4 5 5 4 4 5 5 5 5 4 4 4 3
12 11 10 7 5 6 5 6 6 5 6 7 7 6 6 7 6 6 6 8 6 6 5 5 4 2 3 4 5 5 6 7 7 5 2 2 1 5 7 7 6 6 9 10 10 9 8 8 8 9 9 8 7 6 10 11 11 12 10 8 6 7 7 6 6 7 5 5 5 4 4 4 4 5 4 3 3 4 5 6 6 5 5 5 4
10 8 9 9 8 5 5 4 4 4 5 6 6 6 5 5 5 5 6 7 6 5 5 4 3 2 1 2 3 4 4 5 5 6 5 4 8 6 4 1 3 5 6 3 3 8 8 7 7 7 6 9 9 9 4 10 10 12 12 12 8 6 7 7 10 15 8 5 4 6 5 5 5 4 4 3 3 4 5 5 5 5 4 4 4
9 9 11 10 8 7 5 4 3 3 4 4 5 4 4 3 3 4 5 6 5 5 4 3 2 2 2 2 3 3 3 4 4 5 5 6 5 7 12 10 5 4 5 6 5 3 2 8 10 7 1 7 4 4 11 14 13 13 12 11 11 12 13 14 16 12 6 6 6 6 5 5 5 4 4 4 5 5 5 5 5 4 4 4 5
Wind_Direction
186 187 187 188 187 186 184 181 184 185 185 184 183 185 185 185 181 189 186 176 175 176 180 181 186 191 197 200 208 204 205 206 209 209 207 208 206 200 198 199 194 190 188 179 191 196 194 174 167 164 160 169 178 200 201 209 217 204 157 215 135 105 54 79 100 113 108 62 29 44 31 25 71 90 51 34 32 325 277 266 251 243 227 231 228
179 189 191 189 188 187 185 185 183 184 189 186 187 187 186 185 188 188 180 180 183 183 184 188 193 193 188 198 199 200 197 202 210 205 206 208 201 196 197 197 191 189 183 182 188 192 184 176 176 179 167 181 195 193 194 215 206 195 144 110 51 159 223 192 169 111 39 142 126 17 13 340 45 91 150 259 193 213 254 260 257 252 252 233 218
187 191 190 191 189 187 187 187 189 189 186 188 188 185 185 188 191 184 184 183 187 186 185 192 194 196 193 197 196 199 206 208 208 191 186 200 202 197 194 196 190 191 185 182 184 193 192 179 186 175 178 173 174 190 195 216 206 210 185 203 211 100 157 192 179 126 136 108 117 83 14 9 326 1 298 241 236 200 222 253 249 257 262 256 231
189 190 191 191 190 189 189 189 189 187 187 188 186 187 187 191 189 187 188 187 186 188 191 194 191 189 196 191 186 184 183 172 176 156 183 188 205 198 199 194 192 191 184 181 189 191 187 188 172 175 180 178 181 184 193 211 202 205 189 213 155 239 43 180 169 156 137 141 80 47 178 103 356 286 289 294 269 212 213 245 239 257 267 266 246
189 190 191 191 192 193 191 189 185 189 190 189 187 187 189 190 190 188 188 189 187 188 189 184 179 182 177 146 131 138 92 146 154 192 196 201 196 197 203 189 190 195 187 183 186 191 189 186 178 178 175 177 171 187 196 204 197 195 186 184 192 200 234 186 212 170 180 43 135 107 52 18 226 258 2 282 325 253 222 227 239 238 246 254 254
190 189 191 193 194 191 190 188 190 192 193 192 189 189 187 188 188 188 189 190 190 188 184 178 185 181 171 172 176 183 191 169 188 198 198 200 206 189 182 185 183 193 191 189 191 184 190 189 185 177 179 175 184 192 195 185 196 194 196 189 204 207 203 190 227 172 212 176 167 153 163 168 192 230 140 273 319 233 276 241 226 232 223 238 246
196 196 192 190 193 193 194 194 193 193 195 188 188 189 188 186 187 186 189 191 190 186 181 181 183 184 186 191 193 192 195 201 198 200 199 202 178 179 185 177 185 188 192 193 195 193 194 192 191 192 187 182 183 176 192 203 201 202 182 181 208 175 149 213 216 207 93 189 187 134 79 58 154 133 213 50 314 315 239 234 242 222 220 224 237
193 194 193 193 191 193 194 195 194 196 189 185 188 188 188 188 186 187 188 189 188 183 183 184 185 186 190 196 198 202 203 205 197 199 191 162 177 181 173 186 182 191 195 197 199 196 192 195 191 189 187 187 180 191 201 205 196 211 196 199 160 182 184 207 226 187 184 214 177 203 239 62 163 71 159 180 168 201 284 320 245 257 238 237 235
195 194 194 193 193 194 194 194 196 190 187 189 190 189 188 188 187 186 188 187 185 183 184 187 189 190 192 192 199 205 206 207 184 169 168 165 172 172 181 185 187 193 198 198 201 201 198 197 192 194 191 189 191 196 202 193 201 194 187 177 187 184 186 197 187 208 197 195 124 30 83 85 168 354 129 106 141 170 273 254 264 343 262 251 238
202 202 197 196 194 193 193 193 189 192 192 190 189 187 188 187 188 188 191 188 184 185 186 189 192 191 193 194 198 200 197 186 163 173 172 167 177 182 182 182 190 195 201 202 202 203 206 198 194 200 203 191 194 196 190 195 200 203 201 200 189 189 187 187 198 203 197 194 189 156 155 88 51 18 75 155 322 178 225 228 225 225 256 265 221
202 203 201 198 192 188 184 190 192 192 192 189 188 188 187 187 189 190 192 188 184 186 186 191 192 192 194 195 198 198 190 176 168 178 170 170 183 188 187 193 188 196 188 199 201 199 203 200 201 204 201 197 197 190 192 195 198 200 204 201 197 195 189 194 210 196 183 190 183 182 196 183 188 191 206 200 200 201 228 270 245 211 235 284 275
200 199 201 191 186 192 189 193 191 191 190 189 191 188 188 189 188 191 192 190 187 188 189 192 191 194 196 195 198 198 187 183 187 187 184 188 190 191 189 177 193 191 190 195 201 199 201 206 206 203 205 201 207 199 192 193 193 193 196 197 206 204 188 184 204 208 206 209 213 194 211 208 198 197 200 184 187 217 194 233 236 337 280 233 277
197 197 192 186 192 193 195 193 188 190 191 189 190 188 188 189 189 190 193 190 190 188 191 192 191 196 196 196 198 194 191 189 191 192 187 192 192 190 176 192 180 185 196 198 205 198 200 205 207 208 211 210 209 198 199 190 186 192 201 205 205 200 193 188 189 209 194 202 215 198 194 198 222 222 155 178 211 146 191 244 270 179 244 292 298
198 196 191 192 194 197 196 191 191 190 190 189 189 188 188 189 189 191 194 190 190 190 192 192 196 197 196 196 194 190 193 192 193 195 194 196 191 192 191 191 188 196 190 204 197 192 201 207 205 210 211 209 205 202 198 196 191 196 201 209 212 209 192 192 202 203 199 216 198 196 201 203 224 196 197 164 173 162 187 218 227 237 205 269 291
197 194 194 195 196 196 194 192 190 189 189 190 190 189 186 189 188 192 192 191 190 191 191 193 197 198 196 197 192 190 193 193 196 197 193 193 194 195 197 193 195 199 198 200 186 195 202 201 204 208 208 208 206 204 198 195 200 200 203 214 219 203 204 198 205 196 204 207 203 206 204 200 222 200 183 203 170 198 197 196 176 231 276 249 269
197 197 199 200 197 195 193 192 190 189 189 191 191 189 190 191 190 191 191 189 191 192 193 194 197 196 196 195 194 192 194 193 194 193 196 193 193 196 197 197 202 195 196 183 192 192 196 202 202 208 205 206 209 209 199 192 195 201 207 210 222 195 206 205 212 197 215 211 215 208 195 224 203 198 195 191 193 203 196 172 181 190 227 280 300
196 198 200 200 196 193 194 193 191 188 189 192 191 190 189 187 189 191 192 190 191 192 193 194 195 193 196 196 194 193 193 194 195 196 195 191 190 196 198 202 196 188 188 185 185 195 198 199 203 205 202 204 208 212 206 198 189 200 206 205 218 206 207 214 208 204 214 209 211 207 213 222 212 179 184 190 191 183 197 189 185 192 181 227 278
195 197 199 197 193 194 194 194 192 191 191 190 190 189 188 188 188 189 190 191 193 192 193 193 193 195 196 196 195 195 195 198 198 198 193 185 190 194 195 192 198 196 187 185 185 189 197 200 205 209 204 200 207 208 208 203 190 200 206 211 212 198 211 218 212 211 215 197 210 211 212 226 204 178 190 192 184 197 185 188 196 197 174 208 218
194 199 199 195 194 197 195 196 197 195 190 188 186 184 186 190 190 190 191 192 190 191 193 194 193 195 195 195 193 195 198 199 199 195 188 194 196 195 198 204 194 188 188 184 185 190 194 201 205 208 205 207 206 209 208 207 199 203 199 211 202 201 210 220 217 207 216 193 204 213 205 226 204 200 191 188 194 182 197 187 200 175 195 200 204
195 198 198 195 195 195 194 195 194 192 189 187 184 184 187 188 187 192 193 190 188 190 191 193 194 193 194 192 195 196 197 197 195 190 192 200 202 197 199 195 197 187 194 190 190 193 195 198 201 204 206 207 205 211 206 210 203 213 204 205 199 194 213 221 220 208 215 207 211 217 214 218 201 191 200 194 199 201 187 194 188 193 206 198 181
196 199 197 196 197 197 196 194 195 191 183 178 182 187 188 185 189 189 188 190 191 191 189 193 189 193 191 192 193 194 197 196 194 193 198 203 202 199 199 200 181 194 188 193 197 197 198 202 202 205 208 210 212 211 206 205 209 218 217 212 195 196 211 222 215 218 214 215 218 227 227 219 182 198 203 200 205 204 198 205 193 192 209 185 181
199 199 197 199 199 197 194 191 184 177 180 184 187 185 185 188 189 187 188 190 189 188 190 189 189 191 193 193 193 193 193 192 195 196 201 201 201 199 196 183 193 198 189 196 200 199 200 201 202 207 209 212 213 213 203 199 208 216 221 208 208 200 213 223 209 227 216 214 219 227 237 222 184 205 205 206 204 205 204 204 207 197 211 202 189
201 199 198 198 198 196 188 181 179 183 186 187 184 186 188 188 185 187 188 191 189 189 187 187 188 190 193 193 191 191 190 193 196 198 200 199 197 197 187 192 199 197 196 199 201 202 201 202 205 207 208 212 213 213 208 205 212 215 217 214 210 207 210 214 215 224 221 210 223 228 238 230 189 206 211 215 201 212 205 213 214 201 217 210 189
205 201 199 198 195 189 179 179 184 186 185 184 187 188 186 185 187 186 190 190 188 186 186 185 187 191 192 190 191 191 191 194 196 199 200 199 194 193 189 197 199 194 196 202 202 203 203 203 207 208 208 212 212 213 211 208 213 213 216 218 213 214 215 216 218 221 217 210 220 228 237 228 209 218 226 217 213 212 214 218 219 210 209 217 191
201 198 199 194 184 177 181 183 185 185 186 186 184 184 185 187 185 187 190 187 186 184 183 186 187 188 189 192 193 192 195 196 199 198 200 196 195 191 192 198 196 200 202 198 203 201 204 205 209 211 210 211 213 211 212 212 214 214 217 218 217 216 218 220 221 223 218 215 218 223 234 220 198 219 230 230 215 218 220 218 227 220 216 216 197
204 201 194 185 182 182 182 183 185 186 185 183 184 185 185 185 187 186 184 183 186 184 185 184 186 188 191 192 194 194 197 198 198 199 199 198 197 198 197 198 197 202 203 201 202 200 205 209 213 214 212 214 212 211 213 214 210 211 216 219 220 219 221 221 222 223 220 219 221 227 231 214 200 212 228 231 226 227 222 225 230 231 219 208 222
202 196 192 185 179 183 185 185 185 185 185 183 184 184 183 183 184 184 183 182 182 182 183 186 187 190 190 193 194 196 196 197 198 200 199 198 199 198 196 199 198 203 202 204 204 205 209 211 216 214 215 214 213 213 214 214 215 215 218 219 220 220 222 222 224 223 223 222 227 230 230 213 214 216 226 229 228 227 222 230 232 235 215 208 224
198 191 183 182 186 186 186 185 184 185 183 183 184 183 182 181 182 181 179 179 181 182 184 186 187 191 192 195 196 195 196 196 197 197 198 199 200 201 202 203 199 203 205 208 206 209 211 213 218 216 217 212 212 213 214 214 215 216 217 220 220 220 219 222 225 224 222 226 227 229 226 217 216 221 223 232 223 235 230 235 233 215 210 207 225
191 186 183 186 184 186 186 183 184 180 179 179 180 180 179 179 178 179 179 182 179 180 184 186 188 192 195 195 194 195 196 196 197 197 199 200 201 201 201 202 202 206 209 210 211 212 215 218 221 219 218 212 213 216 215 212 215 217 217 221 220 221 220 220 222 222 223 227 230 230 227 224 222 228 226 229 227 224 230 240 243 219 213 209 222
189 186 186 186 186 184 183 181 177 177 179 178 177 177 179 179 180 180 182 180 174 182 183 186 190 194 194 192 191 192 193 194 195 197 200 201 201 201 201 202 204 207 209 209 211 214 217 219 221 220 218 215 217 220 218 212 210 214 214 220 222 225 224 225 224 224 226 225 229 230 233 232 228 226 226 227 229 227 226 231 244 231 226 213 214
188 184 184 185 184 182 176 174 177 179 179 179 180 180 179 180 179 179 181 179 177 180 183 186 192 193 190 188 188 192 190 194 196 198 200 202 203 200 201 203 206 206 207 207 209 214 217 219 220 220 217 217 220 223 219 211 213 213 213 216 220 224 222 223 223 227 232 228 228 228 235 233 227 228 229 228 228 227 227 232 239 242 232 220 219
187 185 183 181 179 172 173 178 180 181 180 180 179 176 174 181 180 181 180 174 177 180 184 188 191 187 186 187 190 189 192 196 195 200 200 201 201 201 204 206 206 206 208 207 211 214 216 219 221 221 221 219 223 223 215 212 211 211 211 218 218 221 220 221 223 226 233 233 233 232 228 228 225 224 222 227 230 231 230 232 237 241 240 233 225
183 182 181 180 178 177 178 180 179 180 182 183 177 174 182 182 180 179 169 173 179 181 183 187 188 186 187 187 187 189 194 196 198 199 199 198 200 203 206 207 209 209 208 208 213 213 216 218 221 223 224 223 226 220 213 212 210 207 208 211 225 223 219 222 223 226 230 235 236 237 238 233 232 227 227 228 229 229 224 229 235 241 244 238 233
185 182 180 181 179 179 181 179 179 182 184 179 176 183 183 175 167 161 171 173 175 179 182 186 185 186 187 186 188 191 195 198 198 198 199 199 200 204 206 207 209 209 211 214 215 216 217 217 220 223 226 228 227 224 211 211 209 206 204 202 221 222 225 227 227 227 228 231 233 234 237 239 232 226 225 224 226 232 230 219 226 228 235 238 230
192 186 183 177 176 177 177 178 184 182 173 166 174 158 134 150 163 170 171 170 174 177 180 183 185 186 186 189 190 193 197 198 199 199 199 202 202 206 207 207 207 207 209 214 215 215 218 218 220 221 224 229 229 223 213 210 208 203 201 198 213 221 227 230 231 231 232 233 233 232 235 240 240 234 229 221 221 225 225 227 239 246 233 229 209
193 187 181 175 176 174 174 181 171 158 165 171 167 160 162 167 167 166 168 171 173 178 184 183 186 188 189 190 189 194 198 198 199 199 200 203 205 206 207 206 208 212 215 215 217 218 219 220 220 221 224 231 232 220 214 212 206 203 195 197 207 219 223 229 234 234 234 233 233 232 235 239 241 239 235 220 222 227 226 236 241 249 252 222 202
160 164 173 164 160 162 158 141 152 164 164 165 156 158 157 155 162 166 168 171 174 181 185 184 187 189 190 190 191 195 198 199 198 198 201 204 206 208 210 205 209 211 211 211 217 213 217 219 219 219 224 230 235 221 211 210 205 196 187 202 206 214 223 229 235 234 235 235 233 231 231 239 239 241 236 223 220 217 233 240 241 249 252 240 198
121 118 119 121 120 118 129 139 143 153 155 150 152 153 153 159 165 165 169 176 179 187 185 183 189 190 193 191 194 195 198 198 196 199 202 206 208 208 208 203 205 208 211 212 210 217 217 217 219 221 220 226 232 223 208 208 202 192 191 196 207 210 223 228 237 237 235 237 236 230 230 234 239 242 237 225 220 208 220 225 238 245 251 249 227
135 136 134 134 135 135 133 131 136 140 147 145 149 151 155 161 166 170 174 179 187 188 185 187 192 193 193 193 195 196 199 197 197 203 204 206 206 207 207 200 205 210 216 214 215 217 218 218 218 221 222 223 232 226 206 205 201 194 196 209 205 213 222 227 231 239 234 236 238 233 228 231 235 240 237 229 222 206 214 221 224 238 250 256 229
46 89 126 130 129 125 134 144 154 157 150 148 149 154 160 163 170 169 176 186 191 191 190 193 193 193 194 194 195 197 199 197 201 205 205 208 208 206 201 197 206 207 213 213 213 214 217 218 215 218 219 220 226 229 208 201 198 197 196 202 207 210 220 226 230 234 239 233 233 238 233 228 232 237 239 234 228 214 215 226 224 237 247 252 148
49 51 72 99 107 124 139 148 153 152 154 155 157 161 167 166 163 170 185 187 184 183 187 195 196 194 194 195 197 199 200 202 204 205 205 207 204 206 203 202 205 205 212 215 213 214 218 224 218 218 222 221 221 224 216 194 200 197 199 199 211 214 218 222 227 231 230 234 232 229 239 228 224 229 233 237 239 233 228 233 229 231 236 116 133
48 52 59 80 89 92 93 88 107 130 135 137 136 133 131 133 141 152 154 148 151 172 181 190 194 197 197 196 197 201 203 205 206 203 203 209 209 208 205 204 205 206 209 214 214 217 220 224 222 220 221 225 221 214 219 198 197 199 199 201 209 217 212 216 225 233 229 233 234 234 235 232 229 230 233 236 237 239 232 219 230 236 253 127 137
39 42 36 63 77 77 78 88 94 106 116 119 114 112 114 115 112 130 148 144 150 149 168 180 191 199 203 200 197 197 199 202 204 201 202 208 206 205 205 202 203 205 208 213 214 213 217 223 226 224 223 224 222 214 209 206 199 199 201 203 210 216 208 211 222 231 228 234 233 235 243 241 227 224 221 219 223 227 224 223 235 229 237 112 123
38 44 39 43 71 69 73 72 78 85 99 112 115 114 113 106 113 162 141 142 141 151 157 172 185 196 201 205 204 201 200 202 203 200 202 207 204 203 203 201 201 203 205 211 213 211 213 220 224 227 224 224 219 217 206 206 200 200 203 204 210 219 215 214 217 231 233 233 238 242 209 117 129 140 168 187 208 200 203 221 221 229 143 146 175
19 27 35 42 56 65 66 68 67 76 78 85 102 109 102 103 137 143 144 131 131 123 141 168 184 191 196 202 203 206 207 205 203 196 199 205 207 199 201 202 198 202 205 208 212 205 209 215 220 225 227 224 219 213 213 205 205 200 204 205 210 214 221 222 226 232 241 241 91 107 113 122 126 126 135 146 157 181 199 204 204 151 144 171 179
10 19 20 41 49 58 62 66 66 66 74 76 76 91 97 114 136 132 138 126 125 120 117 144 163 181 193 190 198 210 212 213 210 201 202 203 203 199 203 201 197 203 204 206 210 206 210 212 217 223 226 227 214 210 213 201 199 208 208 211 210 213 218 220 224 264 71 99 102 119 127 130 132 135 146 134 135 123 170 169 154 151 161 171 185
8 1 7 33 47 52 56 59 68 58 72 73 80 78 95 119 116 117 108 110 98 102 112 120 149 172 176 180 193 199 202 207 211 211 209 204 200 200 203 202 199 201 202 206 207 206 208 206 214 219 223 222 217 205 202 196 177 191 199 203 209 227 229 226 222 232 242 220 175 169 126 140 109 103 95 96 93 99 95 81 74 90 119 158 192
3 2 10 27 44 47 51 64 72 69 74 80 83 88 95 93 86 83 85 82 76 74 77 78 109 153 170 177 189 198 193 200 203 204 206 206 204 200 199 201 198 197 199 203 202 204 206 204 208 211 215 217 216 204 193 196 188 188 197 190 191 194 192 189 205 210 189 192 190 164 151 150 125 106 101 77 75 71 77 75 71 70 63 58 61
4 1 8 12 24 49 46 61 69 73 78 80 83 83 80 77 73 69 72 74 74 67 58 43 34 105 159 183 186 189 188 189 189 150 47 28 305 230 216 211 200 204 204 200 202 206 204 206 205 205 202 213 214 208 218 202 198 190 183 175 180 195 193 189 199 146 121 141 147 154 159 129 113 119 110 106 96 91 76 76 80 78 69 69 59
354 359 9 8 3 13 48 42 33 35 66 71 67 63 58 69 79 86 86 86 93 91 79 49 18 14 40 177 171 186 171 164 149 142 134 86 61 82 44 317 158 10 21 360 196 204 203 194 200 206 194 204 211 221 177 175 189 184 191 188 188 176 175 158 144 150 146 134 148 125 117 128 126 117 120 116 108 99 106 98 92 87 86 87 92
348 359 2 0 1 355 10 35 8 17 53 59 60 56 57 51 65 86 96 101 105 99 104 105 56 11 354 146 150 131 130 126 138 140 144 139 126 53 49 50 54 60 65 68 84 80 158 189 182 188 115 43 32 134 159 174 172 176 173 161 145 142 141 143 144 134 125 138 133 126 121 120 126 122 118 117 114 115 118 119 110 98 89 95 97